Farmville, Virginia, United States (23901)
Lat: 37.30N, Lon: 78.39W
Wx Zone: VAZ060
Local Info
Past Weather Observations for Yesterday

NOTE: This archive is for the closest National Weather Service station to Farmville. Information may differ from the station used for current weather conditions.

Time Weather Temperature Dewpoint Humidity Pressure Winds Precip Visibility
23:55
Clear
46°F / 8°C 39°F / 4°C 76% 30.24 in
(1024 mb)
Calm - 10SM
23:35
Clear
48°F / 9°C 39°F / 4°C 71% 30.27 in
(1025 mb)
Calm - 10SM
23:15
Clear
46°F / 8°C 39°F / 4°C 76% 30.27 in
(1025 mb)
Calm - 10SM
22:55
Clear
48°F / 9°C 37°F / 3°C 66% 30.27 in
(1025 mb)
Calm - 10SM
22:35
Clear
48°F / 9°C 39°F / 4°C 71% 30.27 in
(1025 mb)
Calm - 10SM
22:15
Clear
48°F / 9°C 39°F / 4°C 71% 30.27 in
(1025 mb)
Calm - 10SM
21:55
Clear
48°F / 9°C 39°F / 4°C 71% 30.27 in
(1025 mb)
Calm - 10SM
21:35
Clear
48°F / 9°C 37°F / 3°C 66% 30.27 in
(1025 mb)
Calm - 10SM
21:15
Clear
48°F / 9°C 37°F / 3°C 66% 30.27 in
(1025 mb)
Calm - 10SM
20:55
Clear
50°F / 10°C 39°F / 4°C 67% 30.27 in
(1025 mb)
Calm - 10SM
20:35
Clear
48°F / 9°C 39°F / 4°C 71% 30.27 in
(1025 mb)
Calm - 10SM
20:15
Clear
52°F / 11°C 37°F / 3°C 58% 30.27 in
(1025 mb)
Calm - 10SM
19:55
Clear
50°F / 10°C 39°F / 4°C 67% 30.27 in
(1025 mb)
Calm - 10SM
19:35
Clear
50°F / 10°C 39°F / 4°C 67% 30.27 in
(1025 mb)
Calm - 10SM
19:15
Clear
52°F / 11°C 39°F / 4°C 62% 30.27 in
(1025 mb)
NE 3.5 mph
(NE 6 kph)
- 10SM
18:55
Clear
52°F / 11°C 39°F / 4°C 62% 30.27 in
(1025 mb)
Calm - 10SM
18:35
Clear
52°F / 11°C 39°F / 4°C 62% 30.27 in
(1025 mb)
Calm - 10SM
18:15
Clear
52°F / 11°C 39°F / 4°C 62% 30.27 in
(1025 mb)
Calm - 10SM
17:55
Clear
55°F / 13°C 37°F / 3°C 51% 30.27 in
(1025 mb)
Calm - 10SM
17:35
Clear
55°F / 13°C 36°F / 2°C 47% 30.27 in
(1025 mb)
Calm - 10SM
17:15
Clear
57°F / 14°C 36°F / 2°C 44% 30.27 in
(1025 mb)
ESE 3.5 mph
(ESE 6 kph)
- 10SM
16:55
Clear
57°F / 14°C 37°F / 3°C 48% 30.27 in
(1025 mb)
SE 3.5 mph
(SE 6 kph)
- 10SM
16:35
Clear
57°F / 14°C 37°F / 3°C 48% 30.27 in
(1025 mb)
ENE 5.8 mph
(ENE 9 kph)
- 10SM
16:15
Clear
57°F / 14°C 37°F / 3°C 48% 30.27 in
(1025 mb)
Calm - 10SM
15:55
Clear
57°F / 14°C 36°F / 2°C 44% 30.3 in
(1026 mb)
Calm - 10SM
15:35
Clear
57°F / 14°C 37°F / 3°C 48% 30.3 in
(1026 mb)
NE 3.5 mph
(NE 6 kph)
- 10SM
15:15
Clear
57°F / 14°C 36°F / 2°C 44% 30.3 in
(1026 mb)
Calm - 10SM
14:55
Clear
57°F / 14°C 36°F / 2°C 44% 30.3 in
(1026 mb)
Calm - 10SM
14:35
Clear
55°F / 13°C 37°F / 3°C 51% 30.3 in
(1026 mb)
N 3.5 mph
(N 6 kph)
- 10SM
14:15
Clear
55°F / 13°C 37°F / 3°C 51% 30.33 in
(1027 mb)
Calm - 10SM
13:55
Clear
55°F / 13°C 36°F / 2°C 47% 30.33 in
(1027 mb)
Calm - 10SM
13:35
Clear
55°F / 13°C 36°F / 2°C 47% 30.36 in
(1028 mb)
S 3.5 mph
(S 6 kph)
- 10SM
13:15
Clear
55°F / 13°C 36°F / 2°C 47% 30.36 in
(1028 mb)
Calm - 10SM
12:55
Clear
54°F / 12°C 36°F / 2°C 51% 30.36 in
(1028 mb)
Calm - 10SM
12:35
Clear
54°F / 12°C 36°F / 2°C 51% 30.39 in
(1029 mb)
Calm - 10SM
12:15
Clear
54°F / 12°C 36°F / 2°C 51% 30.39 in
(1029 mb)
Calm - 10SM
11:55
Clear
54°F / 12°C 36°F / 2°C 51% 30.42 in
(1030 mb)
Calm - 10SM
11:35
Clear
54°F / 12°C 36°F / 2°C 51% 30.42 in
(1030 mb)
ENE 3.5 mph
(ENE 6 kph)
- 10SM
11:15
Clear
52°F / 11°C 36°F / 2°C 54% 30.42 in
(1030 mb)
NE 4.6 mph
(NE 7 kph)
- 10SM
10:55
Clear
52°F / 11°C 36°F / 2°C 54% 30.42 in
(1030 mb)
NE 3.5 mph
(NE 6 kph)
- 10SM
10:35
Clear
50°F / 10°C 36°F / 2°C 58% 30.45 in
(1031 mb)
Calm - 10SM
10:15
Clear
46°F / 8°C 36°F / 2°C 66% 30.45 in
(1031 mb)
NE 4.6 mph
(NE 7 kph)
- 10SM
09:35
Partly Cloudy
46°F / 8°C 36°F / 2°C 66% 30.45 in
(1031 mb)
NE 3.5 mph
(NE 6 kph)
- 10SM
09:15
Partly Cloudy
45°F / 7°C 36°F / 2°C 71% 30.45 in
(1031 mb)
N 6.9 mph
(N 11 kph)
- 10SM
08:55
Clear
45°F / 7°C 36°F / 2°C 71% 30.45 in
(1031 mb)
NE 8.1 mph
(NE 13 kph)
- 10SM
08:35
Clear
43°F / 6°C 36°F / 2°C 76% 30.45 in
(1031 mb)
NE 5.8 mph
(NE 9 kph)
- 10SM
08:15
Clear
39°F / 4°C 37°F / 3°C 93% 30.48 in
(1032 mb)
NE 5.8 mph
(NE 9 kph)
- 10SM
07:55
Clear
39°F / 4°C 37°F / 3°C 93% 30.48 in
(1032 mb)
NE 3.5 mph
(NE 6 kph)
- 10SM
07:35
Clear
39°F / 4°C 37°F / 3°C 93% 30.48 in
(1032 mb)
NE 3.5 mph
(NE 6 kph)
- 10SM
07:15
Clear
37°F / 3°C 37°F / 3°C 100% 30.48 in
(1032 mb)
NE 6.9 mph
(NE 11 kph)
- 10SM
06:55
Clear
37°F / 3°C 36°F / 2°C 93% 30.45 in
(1031 mb)
NNE 3.5 mph
(NNE 6 kph)
- 7SM
06:35
Clear
36°F / 2°C 36°F / 2°C 100% 30.48 in
(1032 mb)
N 3.5 mph
(N 6 kph)
- 7SM
06:15
Clear
36°F / 2°C 34°F / 1°C 93% 30.45 in
(1031 mb)
Calm - 7SM
05:55
Clear
36°F / 2°C 34°F / 1°C 93% 30.45 in
(1031 mb)
Calm - 7SM
05:35
Clear
36°F / 2°C 34°F / 1°C 93% 30.45 in
(1031 mb)
N 3.5 mph
(N 6 kph)
- 10SM
05:15
Clear
36°F / 2°C 34°F / 1°C 93% 30.45 in
(1031 mb)
NNE 3.5 mph
(NNE 6 kph)
- 10SM
04:55
Clear
36°F / 2°C 36°F / 2°C 100% 30.45 in
(1031 mb)
Calm - 10SM
04:35
Clear
36°F / 2°C 36°F / 2°C 100% 30.45 in
(1031 mb)
N 4.6 mph
(N 7 kph)
- 10SM
04:15
Clear
36°F / 2°C 36°F / 2°C 100% 30.45 in
(1031 mb)
N 3.5 mph
(N 6 kph)
- 10SM
03:55
Clear
36°F / 2°C 36°F / 2°C 100% 30.45 in
(1031 mb)
N 3.5 mph
(N 6 kph)
- 10SM
03:35
Clear
37°F / 3°C 36°F / 2°C 93% 30.45 in
(1031 mb)
Calm - 10SM
03:15
Clear
37°F / 3°C 36°F / 2°C 93% 30.45 in
(1031 mb)
Calm - 10SM
02:55
Clear
37°F / 3°C 36°F / 2°C 93% 30.45 in
(1031 mb)
Calm - 10SM
02:35
Clear
37°F / 3°C 36°F / 2°C 93% 30.45 in
(1031 mb)
Calm - 10SM
02:15
Clear
37°F / 3°C 36°F / 2°C 93% 30.45 in
(1031 mb)
NNE 3.5 mph
(NNE 6 kph)
- 10SM
01:55
Clear
39°F / 4°C 34°F / 1°C 81% 30.45 in
(1031 mb)
NNE 3.5 mph
(NNE 6 kph)
- 10SM
01:35
Clear
39°F / 4°C 34°F / 1°C 81% 30.45 in
(1031 mb)
NNE 4.6 mph
(NNE 7 kph)
- 10SM
01:15
Clear
39°F / 4°C 34°F / 1°C 81% 30.48 in
(1032 mb)
Calm - 10SM
00:55
Clear
39°F / 4°C 34°F / 1°C 81% 30.48 in
(1032 mb)
Calm - 10SM
00:35
Clear
39°F / 4°C 34°F / 1°C 81% 30.48 in
(1032 mb)
NE 3.5 mph
(NE 6 kph)
- 10SM
00:15
Clear
41°F / 5°C 34°F / 1°C 76% 30.51 in
(1033 mb)
ENE 5.8 mph
(ENE 9 kph)
- 10SM
Time Weather Temperature Dewpoint Humidity Pressure Winds Precip Visibility


Weather for websites

WeatherForYou.com, LLC is not responsible for any damages or problems caused by this service. Current weather conditions are obtained from the closest station including government and personal stations which may have varying degrees of accuracy. Weather forecasts are derived from the NOAA NDFD. Like all things, this site belongs to Jesus Christ... He just trusts me to maintain it. If you have any questions or comments email webmaster@weatherforyou.com

Copyright © 2014, WeatherForYou.com LLC. All rights reserved.